This demonstration page uses our WeatherBlox Daily Observations layout. Learn more.

Left ArrowRight Arrow

Hourly Observations for March 4, 2019

Temp ( °F °C ) Dew Point ( °F °C ) Humidity (%) Winds ( mph kmh ) Pressure ( in mb ) Visibility ( mi km ) Precip ( " mm )
12:52 am 00:52 Clear -2 -18.9 -11 -23.9 65 65 WNW 12 19 30.53 1034 10 16 0.00 0.00
1:52 am 01:52 Clear -2 -18.9 -12 -24.4 62 62 W 12 19 30.52 1034 10 16 0.00 0.00
2:52 am 02:52 Clear -3 -19.4 -12 -24.4 65 65 WNW 16 26 30.50 1033 10 16 0.00 0.00
3:52 am 03:52 Clear -3 -19.4 -13 -25 61 61 WNW 13 20 30.49 1032 10 16 0.00 0.00
4:52 am 04:52 Clear -4 -20 -13 -25 65 65 NW 14 22 30.49 1032 10 16 0.00 0.00
5:52 am 05:52 Clear -4 -20 -13 -25 65 65 NW 15 24 30.49 1032 10 16 0.00 0.00
6:52 am 06:52 Clear -4 -20 -13 -25 65 65 WNW 13 20 30.48 1032 10 16 0.00 0.00
7:52 am 07:52 Sunny -1 -18.3 -12 -24.4 59 59 WNW 13 20 30.49 1032 10 16 0.00 0.00
8:52 am 08:52 Sunny 1 -17.2 -11 -23.9 56 56 NW 15 24 30.49 1033 10 16 0.00 0.00
9:52 am 09:52 Sunny 3 -16.1 -10 -23.3 54 54 NW 16 26 30.48 1032 10 16 0.00 0.00
10:52 am 10:52 Sunny 5 -15 -8 -22.2 54 54 NW 15 24 30.46 1032 10 16 0.00 0.00
11:52 am 11:52 Sunny 8 -13.3 -7 -21.7 50 50 WNW 12 19 30.46 1031 10 16 0.00 0.00
12:52 pm 12:52 Sunny 9 -12.8 -7 -21.7 48 48 WNW 15 24 30.43 1030 10 16 0.00 0.00
1:52 pm 13:52 Sunny 12 -11.1 -5 -20.6 46 46 W 15 24 30.40 1029 10 16 0.00 0.00
2:52 pm 14:52 Sunny 13 -10.6 -5 -20.6 44 44 W 21 33 30.39 1029 10 16 0.00 0.00
3:52 pm 15:52 Sunny 14 -10 -4 -20 44 44 W 18 30 30.36 1028 10 16 0.00 0.00
4:52 pm 16:52 Sunny 14 -10 -4 -20 44 44 W 20 31 30.35 1028 10 16 0.00 0.00
5:52 pm 17:52 Sunny 14 -10 -4 -20 44 44 W 16 26 30.34 1027 10 16 0.00 0.00
6:52 pm 18:52 Clear 13 -10.6 -4 -20 46 46 W 10 17 30.32 1027 10 16 0.00 0.00
7:52 pm 19:52 Clear 12 -11.1 -4 -20 48 48 W 7 11 30.32 1027 10 16 0.00 0.00
8:52 pm 20:52 Clear 13 -10.6 -3 -19.4 49 49 W 8 13 30.31 1026 10 16 0.00 0.00
9:52 pm 21:52 Clear 13 -10.6 -3 -19.4 49 49 WSW 6 9 30.31 1027 10 16 0.00 0.00
10:52 pm 22:52 Clear 12 -11.1 -3 -19.4 51 51 W 10 17 30.30 1026 10 16 0.00 0.00
11:52 pm 23:52 Clear 10 -12.2 -4 -20 53 53 W 10 17 30.29 1026 10 16 0.00 0.00

Powered by AerisWeather